Hourly Data Report for April 15, 2005

TORONTO CITY
ONTARIO

43°40'00.000" N
79°24'00.000" W
112.50 m
6158355
71508
XTO

Download Data

Hourly Data (April 2005)
Hourly Data Report for April 15, 2005
TIME
LST
Temp Definition
°C
Dew Point Definition
°C
Rel Hum Definition
%
Precip. Amount Definition
mm

Wind Dir Definition
10's deg

Wind Spd Definition
km/h
Visibility Definition
km
Stn Press Definition
kPa
Hmdx Definition


Wind Chill Definition


Weather Definition


00:00 8.6 -6.1 35   LegendMM LegendMM   101.46     LegendNANA
01:00 8.4 -6.4 34   LegendMM LegendMM   101.52     LegendNANA
02:00 8.1 -8.4 30   LegendMM LegendMM   101.57     LegendNANA
03:00 7.3 -10.3 27   LegendMM LegendMM   101.60     LegendNANA
04:00 6.7 -10.4 28   LegendMM LegendMM   101.66     LegendNANA
05:00 5.7 -10.1 31   LegendMM LegendMM   101.69     LegendNANA
06:00 5.4 -10.0 32   LegendMM LegendMM   101.80     LegendNANA
07:00 6.1 -8.6 34   LegendMM LegendMM   101.89     LegendNANA
08:00 6.6 -7.5 36   LegendMM LegendMM   101.93     LegendNANA
09:00 7.5 -7.3 34   LegendMM LegendMM   102.01     LegendNANA
10:00 8.8 -7.0 32   LegendMM LegendMM   102.04     LegendNANA
11:00 8.6 -7.8 30   LegendMM LegendMM   102.06     LegendNANA
12:00 9.2 -7.8 29   LegendMM LegendMM   102.05     LegendNANA
13:00 9.9 -6.6 31   LegendMM LegendMM   102.02     LegendNANA
14:00 10.6 -7.9 26   LegendMM LegendMM   101.97     LegendNANA
15:00 10.9 -7.9 26   LegendMM LegendMM   101.94     LegendNANA
16:00 10.6 -9.3 24   LegendMM LegendMM   101.92     LegendNANA
17:00 10.3 -9.4 24   LegendMM LegendMM   101.91     LegendNANA
18:00 9.9 -11.8 20   LegendMM LegendMM   101.89     LegendNANA
19:00 8.8 -8.8 28   LegendMM LegendMM   101.89     LegendNANA
20:00 8.2 -8.0 31   LegendMM LegendMM   101.90     LegendNANA
21:00 7.8 -6.4 36   LegendMM LegendMM   101.88     LegendNANA
22:00 7.8 -6.3 36   LegendMM LegendMM   101.89     LegendNANA
23:00 8.2 -8.1 31   LegendMM LegendMM   101.86     LegendNANA

Notes on Data Quality.

Legend

  • E = Estimated
  • M = Missing
  • NA = Not Available*
  • [empty] = Indicates an unobserved value
Date modified: